sat.trackr.live / text

‹ back to catalog

STARLINK-37700

NORAD 69215 · 2026-115E

PAYLOAD ACTIVE UNKNOWN

§ Identity

Operator
Country
US
Launch date
2026-05-26
Launch site
AFWTR
Launch vehicle
Mass (kg)
RCS (m²)

Purposes: comms

External: N2YO · Heavens-Above · Gunter

§ Orbital elements

Epoch: 2026-09-20T02:00:38.246400Z

Period
93.91 min
Inclination
97.2835°
Eccentricity
0.0001336
Mean motion
15.33445382 rev/d
Perigee alt
464.6 km
Apogee alt
466.5 km
Semi-major
6,843.7 km
B*
1.7617e-4
RAAN
279.1320°
Arg perigee
97.3745°
Mean anomaly
262.7649°
Rev number
1,922

§ Raw data

STARLINK-377001 69215U 26115E   26263.08377600  .00005617  00000+0  17617-3 0  99912 69215  97.2835 279.1320 0001336  97.3745 262.7649 15.33445382 19229

JSON: /api/v1/satellites/69215 · /tle

For live sub-satellite position, see the globe view (requires WebGL).

§ Visibility from observer

Set your observer location to see the next 7 days of passes ≥ 10°. The values pass through the URL so the page stays shareable.

No JS? Fill the form by hand. The geolocation button needs JavaScript.